Lexington Weather

Lexington, Massachusetts, USA

59°F
11/30/2020 5:46pm 
  • Lexington Conditions: Light rain, Mist, Overcast
  • Temperature: 59.4°F / 15.2°CWarmer 1.7°F than last hour.
  • Dew Point: 57.6°FIncreased 1.3°Fsince last hour.
  • Relative Humidity: 94%Decreased 1.0% since last hour.
  • Wind: Wind from WSW WSW 10 mph, 10-min avg: 8 mph, gust: 26 mph
  • Barometer: 29.57 in Steady
  • Visibility: 4 miles
  • Rain Today: 0.47 in
  •   
Southeast Middlesex County - Wind Advisory
 - SEE ALL NEARBY ALERTS -

Regional Weather Roundup
for Boston / Norton, MA

        
000
ASUS41 KBOX 292304
RWRBOX

REGIONAL WEATHER ROUNDUP
NATIONAL WEATHER SERVICE BOSTON/NORTON MA
600 PM EST SUN NOV 29 2020

NOTE:  "FAIR" INDICATES FEW OR NO CLOUDS BELOW 12,000 FEET WITH NO 
SIGNIFICANT WEATHER AND/OR OBSTRUCTIONS TO VISIBILITY.

MAZALL-300000-
EASTERN MASSACHUSETTS
  
CITY           SKY/WX    TMP DP  RH WIND       PRES   REMARKS
BOSTON         CLEAR     46  30  53 S6        30.13R                  
BEVERLY        CLEAR     46  28  49 CALM      30.10R                  
LAWRENCE       CLEAR     46  29  51 S3        30.12R                  
BEDFORD        CLEAR     39  29  67 CALM      30.10R                  
BLUE HILL        N/A     44  29  55 S9        30.10R                  
NORWOOD        CLEAR     38  29  70 CALM      30.12R                  
MARSHFIELD     CLEAR     46  34  61 SW6       30.12S                  
PLYMOUTH       CLEAR     44  36  73 S6        30.13R                  
TAUNTON        CLEAR     43  34  70 S3        30.13R                  
NEW BEDFORD    CLEAR     41  36  82 CALM      30.13R                  
$$

MAZALL-300000-
CAPE COD AND THE ISLANDS
  
CITY           SKY/WX    TMP DP  RH WIND       PRES   REMARKS
FALMOUTH       CLEAR     43  39  87 SW7       30.14R                  
HYANNIS        CLEAR     44  40  85 CALM      30.13R                  
CHATHAM        CLEAR     48  41  76 SW6       30.15R                  
PROVINCETOWN   CLEAR     47  41  80 SW13      30.14                   
NANTUCKET      CLEAR     47  43  86 W8        30.16R                  
MARTHAS VNYRD  CLEAR     46  41  82 SW5       30.15R                  
$$
 
MAZALL-300000-
CENTRAL AND WESTERN MASSACHUSETTS
  
CITY           SKY/WX    TMP DP  RH WIND       PRES   REMARKS
WORCESTER      CLEAR     43  24  47 S6        30.09R                  
FITCHBURG      CLEAR     34  28  79 CALM      30.10S                  
ORANGE         CLEAR     35  31  85 CALM      30.10R                  
SPRINGFIELD    PTCLDY    42  28  56 S3        30.10R                  
WESTFIELD      CLEAR     40  29  64 S5        30.10R                  
NORTH ADAMS    PTCLDY    37  28  70 CALM      30.09R                  
PITTSFIELD     PTCLDY    37  27  67 CALM      30.07R                  
$$
 
RIZALL-300000-
RHODE ISLAND
  
CITY           SKY/WX    TMP DP  RH WIND       PRES   REMARKS
PROVIDENCE     PTCLDY    44  33  65 S7        30.13R                  
NEWPORT        CLEAR     43  37  79 CALM      30.13R                  
BLOCK ISLAND   CLEAR     48  37  65 SW17      30.15R                  
SMITHFIELD     CLEAR     43  30  60 SW3       30.12R                  
WESTERLY       CLEAR     41  34  76 CALM      30.14R                  
$$
 
CTZALL-300000-
CONNECTICUT
  
CITY           SKY/WX    TMP DP  RH WIND       PRES   REMARKS
BRADLEY INTL   MOCLDY    45  27  49 S9        30.11R                  
HARTFORD       CLEAR     47  25  42 S5        30.12R                  
BRIDGEPORT     PTCLDY    49  34  56 S9        30.13R                  
DANBURY        PTCLDY    39  26  59 CALM      30.12R                  
GROTON         CLEAR     48  37  65 SW12      30.13S                  
NEW HAVEN      PTCLDY    50  35  56 S8        30.13R                  
CHESTER        FAIR      45  34  65 S5        30.13R                  
MERIDEN        CLEAR     40  28  62 S3        30.13R                  
WILLIMANTIC    CLEAR     41  30  65 CALM      30.13R                  
OXFORD         PTCLDY    44  24  45 S5        30.12R                  
$$

MEZ002-015-021-024-NHZ003-005-008-011-012-014-VTZ005-008-300000-
NORTHERN NEW ENGLAND
  
CITY           SKY/WX    TMP DP  RH WIND       PRES   REMARKS
PORTLAND ME    CLEAR     40  35  83 CALM      30.10R                  
BANGOR ME      PTCLDY    37  33  85 CALM      30.09R                  
CONCORD NH     CLEAR     36  28  73 CALM      30.08S                  
MANCHESTER NH  PTCLDY    44  29  55 SE6       30.08R                  
NASHUA NH      CLEAR     38  33  82 CALM      30.10S                  
PORTSMOUTH NH  PTCLDY    44  27  51 S5        30.08                   
JAFFREY NH     CLEAR     34  28  79 CALM      30.08R                  
KEENE NH       CLEAR     34  30  85 CALM      30.10R                  
BURLINGTON VT  PTCLDY    41  28  60 S6        30.04R                  
MT. WASHINGTON PTCLDY    27  12  54 W37         N/A  WCI   9          
$$

NYZ052-076-300000-
EASTERN NEW YORK
  
CITY           SKY/WX    TMP DP  RH WIND       PRES   REMARKS
ALBANY         MOCLDY    38  26  62 S5        30.08R                  
NEW YORK CITY  PTCLDY    52  30  43 S8        30.11S                  
$$
 
ANZALL-300000-
MARINE OBSERVATIONS
  
STATION/POSITION TIME  TEMP    WIND        PRES    VSBY  WAVE
                       AIR SEA DIR/SP/G                  HT/PER
                 (UTC) (F)     (DEG/KT/KT) (MB)    (MI)  (FT/S)
BOSTON BUOY      2240   50 50  220/ 10/ 12 1020.5R
BUZZARDS BAY     2200          230/ 15/ 16 1021.2R
NANTUCKET SOUND  2240      51  240/ 10/ 12   N/A
MASS BAY-STELLWA NOT AVBL
ISLE OF SHOALS   2200   49     220/  8/  9 1018.6R
S OF BLOCK IS    2226      57                N/A           3/ 4
$$

......................KEY.........................
  SKY/WX - SKY CONDITION/PRESENT WEATHER
  TMP    - TEMPERATURE IN FAHRENHEIT
  DWPT   - DEWPOINT IN FAHRENHEIT
  RH     - RELATIVE HUMIDITY IN PERCENT
  WIND   - DIRECTION AND SPEED IN MPH
  PRES   - MEAN SEA LEVEL PRESSURE IN INCHES OF HG
  WCI    - WIND CHILL INDEX
  VSB    - VISIBILITY IN MILES
  HX     - HEAT INDEX
  TC     - TEMPERATURE IN CELSIUS
  VRB    - VARIABLE WIND DIRECTION
  N/A    - NOT AVAILABLE
  
      

Other recent Regional Weather Roundups

Mon Nov 30, 5:05pm

Mon Nov 30, 4:04pm

Mon Nov 30, 3:05pm

Mon Nov 30, 2:05pm

Mon Nov 30, 1:04pm

Mon Nov 30, 12:05pm

Mon Nov 30, 11:04am

Mon Nov 30, 10:04am

Mon Nov 30, 9:04am

Mon Nov 30, 8:04am

Mon Nov 30, 7:05am

Mon Nov 30, 6:04am

Mon Nov 30, 5:05am

Mon Nov 30, 4:04am

Mon Nov 30, 3:04am

Mon Nov 30, 2:04am

Mon Nov 30, 1:04am

Mon Nov 30, 12:04am

Sun Nov 29, 11:04pm

Sun Nov 29, 10:04pm

Sun Nov 29, 9:04pm

Sun Nov 29, 8:04pm

Sun Nov 29, 7:04pm

Sun Nov 29, 5:04pm

Sun Nov 29, 4:05pm

Sun Nov 29, 3:04pm

Sun Nov 29, 2:04pm

Sun Nov 29, 1:04pm

Sun Nov 29, 12:04pm

Sun Nov 29, 11:04am

Sun Nov 29, 10:04am

Sun Nov 29, 9:04am

Sun Nov 29, 8:05am

Sun Nov 29, 7:04am

Sun Nov 29, 6:04am

Sun Nov 29, 5:04am

Sun Nov 29, 4:04am

Sun Nov 29, 3:04am

Sun Nov 29, 2:05am

Sun Nov 29, 1:04am

Sun Nov 29, 12:04am

Sat Nov 28, 11:04pm

Sat Nov 28, 10:04pm

Sat Nov 28, 9:04pm

Sat Nov 28, 8:04pm

Sat Nov 28, 7:04pm

Sat Nov 28, 6:04pm

Sat Nov 28, 5:04pm

Sat Nov 28, 4:04pm

Sat Nov 28, 3:04pm

Sat Nov 28, 2:04pm

Sat Nov 28, 1:04pm

Sat Nov 28, 12:04pm

Sat Nov 28, 11:04am

Sat Nov 28, 10:04am

Sat Nov 28, 9:04am

Sat Nov 28, 8:04am

Sat Nov 28, 7:04am

Sat Nov 28, 6:04am

Sat Nov 28, 5:04am

Sat Nov 28, 4:04am

Sat Nov 28, 3:05am

Sat Nov 28, 2:04am

Sat Nov 28, 1:04am

Sat Nov 28, 12:04am

Fri Nov 27, 11:05pm

Fri Nov 27, 10:04pm

Fri Nov 27, 9:04pm

Fri Nov 27, 8:04pm

Fri Nov 27, 7:04pm

Fri Nov 27, 6:04pm

Fri Nov 27, 5:04pm

Fri Nov 27, 4:05pm

Fri Nov 27, 3:05pm

Fri Nov 27, 2:05pm

Fri Nov 27, 1:04pm

Fri Nov 27, 12:04pm

Fri Nov 27, 11:04am

Fri Nov 27, 10:04am

Fri Nov 27, 9:05am

Fri Nov 27, 8:04am

Fri Nov 27, 7:04am

Fri Nov 27, 6:04am

Fri Nov 27, 5:04am

Fri Nov 27, 4:04am

Fri Nov 27, 3:04am

Fri Nov 27, 2:04am

Fri Nov 27, 1:04am

Fri Nov 27, 12:04am

Thu Nov 26, 11:04pm

Thu Nov 26, 10:04pm

Thu Nov 26, 9:04pm

Thu Nov 26, 8:04pm

Thu Nov 26, 7:04pm

Thu Nov 26, 6:04pm

Thu Nov 26, 5:04pm

Thu Nov 26, 4:04pm

Thu Nov 26, 2:04pm

Thu Nov 26, 1:04pm

Thu Nov 26, 12:04pm

Thu Nov 26, 11:04am

Thu Nov 26, 10:04am

Thu Nov 26, 9:04am

Thu Nov 26, 8:04am

Thu Nov 26, 7:04am

Thu Nov 26, 6:04am

Thu Nov 26, 5:04am

Thu Nov 26, 4:04am

Thu Nov 26, 3:04am

Thu Nov 26, 2:04am

Thu Nov 26, 1:04am

Thu Nov 26, 12:04am

Wed Nov 25, 11:04pm

Wed Nov 25, 10:04pm

Wed Nov 25, 9:04pm

Wed Nov 25, 8:04pm

Wed Nov 25, 7:04pm

Wed Nov 25, 6:04pm

Wed Nov 25, 5:04pm

Wed Nov 25, 4:04pm

Wed Nov 25, 3:05pm

Wed Nov 25, 2:04pm

Wed Nov 25, 1:04pm

Wed Nov 25, 12:05pm

Wed Nov 25, 11:04am

Wed Nov 25, 10:04am

Wed Nov 25, 9:04am

Wed Nov 25, 8:04am

Wed Nov 25, 7:04am

Wed Nov 25, 6:04am

Wed Nov 25, 5:04am

Wed Nov 25, 4:04am

Wed Nov 25, 3:04am

Wed Nov 25, 2:04am

Wed Nov 25, 1:04am

Wed Nov 25, 12:04am

Tue Nov 24, 11:04pm

Tue Nov 24, 10:04pm

Tue Nov 24, 9:04pm

Tue Nov 24, 8:04pm

Tue Nov 24, 7:04pm

Tue Nov 24, 6:04pm

Tue Nov 24, 5:04pm

Tue Nov 24, 4:05pm

Tue Nov 24, 3:05pm

Tue Nov 24, 2:05pm

Tue Nov 24, 1:05pm

Tue Nov 24, 12:04pm

Tue Nov 24, 11:04am

Tue Nov 24, 10:04am

Tue Nov 24, 9:04am

Tue Nov 24, 8:04am

Tue Nov 24, 7:04am

Tue Nov 24, 6:04am

Tue Nov 24, 5:04am

Tue Nov 24, 4:05am

Tue Nov 24, 3:04am

Tue Nov 24, 2:04am

Tue Nov 24, 1:04am

Tue Nov 24, 12:05am

Mon Nov 23, 11:04pm

Mon Nov 23, 10:04pm

Mon Nov 23, 9:04pm

Mon Nov 23, 8:04pm

Mon Nov 23, 7:04pm

Mon Nov 23, 6:04pm

Meta data:

ID: befe1805-36a6-42b4-9da7-89e2e05ef77f
Link: https://api.weather.gov/products/befe1805-36a6-42b4-9da7-89e2e05ef77f